Alturas, CA

4:37 AM PST on November 19, 2019 (GMT -0800)
Alturas Municipal

Weather History for KAAT - October, 2019

Change the Weather History Date:

Wednesday, October 23, 2019

  Actual Average Record
Temperature  
Mean Temperature 46 °F 44 °F  
Max Temperature 66 °F 62 °F 85 °F (1959)
Min Temperature 25 °F 27 °F 14 °F (1906)
Degree Days  
Heating Degree Days 20 21  
Month to date heating degree days 476 389  
Since 1 July heating degree days 782 766  
Cooling Degree Days 0 0  
Month to date cooling degree days 0 0  
Year to date cooling degree days 217 156  
Moisture  
Dew Point 27 °F    
Average Humidity 65    
Maximum Humidity 96    
Minimum Humidity 19    
Precipitation  
Precipitation 0.00 in 0.03 in 0.53 in (2004)
Month to date precipitation 0.31 0.63  
Year to date precipitation 12.54 10.29  
Sea Level Pressure  
Sea Level Pressure 30.33 in    
Wind  
Wind Speed 3 mph ()    
Max Wind Speed 15 mph    
Max Gust Speed 21 mph    
Visibility 8.0 miles    
Events Fog    
T = Trace of Precipitation, MM = Missing Value Source: Averaged Metar Reports

Daily Weather History Graph

Daily Weather History Graph

Search for Another Location

Airport or City:

Astronomy

Oct. 23, 2019 Rise Set
Actual Time 7:23 AM PDT 6:09 PM PDT
Civil Twilight 6:54 AM PDT 6:37 PM PDT
Nautical Twilight 6:22 AM PDT 7:09 PM PDT
Astronomical Twilight 5:50 AM PDT 7:41 PM PDT
Moon 1:42 AM PDT (10/23) 4:07 PM PDT (10/23)
Length of Visible Light 11h 42m
Length of Day
10h 46m
Waning Crescent, 25% of the Moon is Illuminated
Oct 23
Waning Crescent
Oct 27
New
Nov 4
First Quarter
Nov 12
Full
Nov 19
Last Quarter

Hourly Weather History & Observations

Time (PDT) Temp. Windchill Dew Point Humidity Pressure Visibility Wind Dir Wind Speed Gust Speed Precip Events Conditions
12:55 AM 45.0 °F 43.5 °F 35.1 °F 68% 30.31 in 10.0 mi Variable 3.5 mph - N/A   Clear
1:55 AM 41.0 °F - 36.0 °F 82% 30.30 in 10.0 mi Calm Calm - N/A   Clear
2:55 AM 41.0 °F 39.0 °F 33.1 °F 73% 30.30 in 10.0 mi SSE 3.5 mph - N/A   Clear
3:55 AM 37.0 °F 34.5 °F 30.9 °F 79% 30.30 in 10.0 mi SSW 3.5 mph - N/A   Clear
4:55 AM 35.1 °F 30.1 °F 33.1 °F 92% 30.30 in 10.0 mi SE 5.8 mph - N/A   Clear
5:55 AM 30.9 °F - 28.9 °F 92% 30.32 in 10.0 mi Calm Calm - N/A   Clear
6:55 AM 28.0 °F - 25.0 °F 88% 30.35 in 10.0 mi Calm Calm - N/A   Clear
7:38 AM 25.0 °F - 23.0 °F 92% 30.34 in 0.8 mi Calm Calm - N/A   Clear
7:45 AM 26.1 °F - 24.1 °F 92% 30.34 in 0.2 mi Calm Calm - N/A Fog Light Freezing Fog
7:51 AM 26.6 °F - 24.8 °F 93% 30.34 in 1.0 mi Calm Calm - N/A   Clear
7:55 AM 28.0 °F - 27.0 °F 96% 30.36 in 4.0 mi Calm Calm - N/A   Clear
8:32 AM 30.0 °F 26.5 °F 28.9 °F 96% 30.36 in 2.0 mi SSE 3.5 mph - N/A   Partly Cloudy
8:34 AM 30.0 °F 24.1 °F 28.9 °F 96% 30.36 in 0.8 mi SE 5.8 mph - N/A   Mist
8:46 AM 32.0 °F 27.5 °F 30.9 °F 96% 30.37 in 2.0 mi SE 4.6 mph - N/A   Partly Cloudy
8:53 AM 33.8 °F 30.8 °F 30.2 °F 87% 30.37 in 10.0 mi SE 3.5 mph - N/A   Partly Cloudy
8:55 AM 33.1 °F 30.0 °F 30.9 °F 92% 30.38 in 10.0 mi SE 3.5 mph - N/A   Partly Cloudy
9:55 AM 43.0 °F 41.3 °F 35.1 °F 74% 30.35 in 10.0 mi WSW 3.5 mph - N/A   Clear
10:55 AM 52.0 °F - 30.9 °F 45% 30.35 in 10.0 mi Variable 3.5 mph - N/A   Clear
11:55 AM 57.9 °F - 23.0 °F 26% 30.32 in 10.0 mi North 5.8 mph - N/A   Clear
12:55 PM 62.1 °F - 23.0 °F 22% 30.31 in 10.0 mi North 10.4 mph - N/A   Clear
2:55 PM 64.0 °F - 21.9 °F 20% 30.26 in 10.0 mi North 10.4 mph - N/A   Clear
4:55 PM 63.0 °F - 21.9 °F 21% 30.28 in 10.0 mi North 9.2 mph - N/A   Clear
5:55 PM 57.9 °F - 21.9 °F 25% 30.31 in 10.0 mi NNE 11.5 mph - N/A   Clear
6:55 PM 53.1 °F - 19.0 °F 26% 30.33 in 10.0 mi NNE 12.7 mph - N/A   Clear
7:55 PM 50.0 °F - 19.9 °F 31% 30.36 in 10.0 mi NNE 8.1 mph - N/A   Clear
8:55 PM 46.9 °F - 21.9 °F 37% 30.36 in 10.0 mi NNE 8.1 mph - N/A   Clear
9:55 PM 46.0 °F 42.5 °F 21.9 °F 39% 30.35 in 10.0 mi NNE 6.9 mph - N/A   Clear
10:55 PM 45.0 °F 42.6 °F 23.0 °F 42% 30.34 in 10.0 mi NNE 4.6 mph - N/A   Clear
11:55 PM 39.9 °F - 24.1 °F 53% 30.34 in 10.0 mi Calm Calm - N/A   Clear